This is the latest recevied weather packets stored in our database for station/object AI9F. If no packets are shown the sender has not sent any weather packets the latest 1 day(s).
| Time | Temp. | Humidity | Pressure | Rain* | Wind** | Luminosity | Snow |
|---|---|---|---|---|---|---|---|
| 1778046680 | 7.78° C | 97% | 1011.6 hPa | 0 mm | 0 m/s | 0 W/m² | - |
| 1778046377 | 7.78° C | 97% | 1011.3 hPa | 0 mm | 0 m/s | 0 W/m² | - |
| 1778046073 | 7.78° C | 97% | 1011.6 hPa | 1.27 mm | 0 m/s | 0 W/m² | - |
| 1778045771 | 7.78° C | 97% | 1011.5 hPa | 1.27 mm | 0 m/s | 0 W/m² | - |
| 1778045469 | 7.78° C | 97% | 1011.8 hPa | 1.78 mm | 0 m/s | 0 W/m² | - |
| 1778045167 | 7.78° C | 97% | 1011.6 hPa | 1.78 mm | 0 m/s | 0 W/m² | - |
| 1778044865 | 7.78° C | 96% | 1011.8 hPa | 1.78 mm | 0 m/s | 0 W/m² | - |
| 1778044561 | 7.78° C | 96% | 1011.7 hPa | 3.05 mm | 0.45 m/s, 106° | 0 W/m² | - |
| 1778044258 | 7.78° C | 96% | 1011.8 hPa | 1.27 mm | 0 m/s | 0 W/m² | - |
| 1778043955 | 7.78° C | 96% | 1011.7 hPa | 3.05 mm | 0 m/s | 0 W/m² | - |
| 1778043653 | 7.78° C | 96% | 1011.5 hPa | 4.83 mm | 0 m/s | 0 W/m² | - |
| 1778043349 | 7.78° C | 96% | 1011.1 hPa | 4.32 mm | 0 m/s | 0 W/m² | - |
| 1778043046 | 7.78° C | 96% | 1011.2 hPa | 3.05 mm | 0 m/s | 0 W/m² | - |
| 1778042744 | 7.78° C | 96% | 1011.4 hPa | 3.05 mm | 0 m/s | 0 W/m² | - |
| 1778042440 | 7.78° C | 96% | 1011.7 hPa | 3.05 mm | 0 m/s | 0 W/m² | - |
| 1778042137 | 7.78° C | 96% | 1011.5 hPa | 3.05 mm | 0.45 m/s, 90° | 0 W/m² | - |
| 1778041836 | 7.78° C | 96% | 1011.6 hPa | 1.27 mm | 0.45 m/s, 52° | 0 W/m² | - |
| 1778041535 | 7.78° C | 95% | 1011.5 hPa | 3.05 mm | 0 m/s | 0 W/m² | - |
| 1778041232 | 7.78° C | 95% | 1011.2 hPa | 3.05 mm | 0 m/s | 0 W/m² | - |
| 1778040931 | 7.78° C | 95% | 1010.7 hPa | 3.05 mm | 0.45 m/s, 70° | 0 W/m² | - |
| 1778040627 | 7.78° C | 95% | 1010.9 hPa | 1.78 mm | 0.45 m/s, 34° | 0 W/m² | - |
| 1778040325 | 7.78° C | 95% | 1010.9 hPa | 0 mm | 0.45 m/s, 85° | 0 W/m² | - |
| 1778040020 | 7.78° C | 95% | 1011.5 hPa | 0 mm | 0.45 m/s, 156° | 0 W/m² | - |
| 1778039718 | 7.78° C | 95% | 1011.1 hPa | 0 mm | 0.45 m/s, 140° | 0 W/m² | - |
| 1778039414 | 8.33° C | 96% | 1010.7 hPa | 0 mm | 0.45 m/s, 142° | 0 W/m² | - |
* Rain latest hour (hover to see other rain measurements)
** Current wind speed in m/s (hover to see current wind gust speed)